{"data":{"norad_id":52635,"epoch":"2026-05-25T01:18:31.468896Z","epoch_age_seconds":80590,"freshness":"FRESH","line1":"1 52635U 22052AP  26145.05453089  .00000881  00000+0  73437-4 0  9998","line2":"2 52635  53.2152 276.3022 0001496  92.1716 267.9448 15.08834800222664","mean_motion":15.088348,"eccentricity":0.0001496,"inclination_deg":53.2152,"raan_deg":276.3022,"arg_perigee_deg":92.1716,"mean_anomaly_deg":267.9448,"bstar":7.3437e-5,"rev_number":22266,"period_min":95.437883590702,"perigee_km":538.72436604547,"apogee_km":540.79420061345,"semimajor_km":6917.8962833295,"source":"CELESTRAK","updated_at":"2026-05-25T13:38:17.204909Z"}}